When you browse on this site, cookies collect data to enhance your experience and personalize the content and advertising you see.
Visit our Privacy Policy to learn more. By continuing to use the site, you agree to this use of cookies and data.
  • In Czech Republic
  • List of Countries
  • For 7 days
  • Water Temperature
  • Weather Map
  • Weather Widgets
  • user-avatar
    Login

    Hourly Weather Bolshaya Pogorelka

    Today, 20 February, Thursday

    Time Temperature Precipitation Wind Pressure Humidity
    00:00 -1°C° 0 mm 4 mps 740 mmHg 94%
    01:00 -1°C° 0 mm 4 mps 740 mmHg 93%
    02:00 -1°C° 0 mm 4 mps 741 mmHg 93%
    03:00 -1°C° 0 mm 4 mps 741 mmHg 94%
    04:00 -1°C° 0 mm 4 mps 741 mmHg 95%
    05:00 -1°C° 0 mm 4 mps 742 mmHg 97%
    06:00 -1°C° 0.1 mm 4 mps 742 mmHg 96%
    07:00 -1°C° 0.1 mm 4 mps 742 mmHg 96%
    08:00 -1°C° 0 mm 4 mps 743 mmHg 96%
    09:00 -1°C° 0.1 mm 4 mps 743 mmHg 96%
    10:00 -1°C° 0.1 mm 4 mps 743 mmHg 96%
    11:00 0°C° 0.1 mm 4 mps 744 mmHg 96%
    12:00 0°C° 0.1 mm 4 mps 744 mmHg 96%
    13:00 0°C° 0.1 mm 4 mps 744 mmHg 96%
    14:00 0°C° 0.1 mm 4 mps 744 mmHg 95%
    15:00 0°C° 0.1 mm 4 mps 745 mmHg 96%
    16:00 +1°C° 0.1 mm 3 mps 745 mmHg 96%
    17:00 0°C° 0.1 mm 3 mps 745 mmHg 96%
    18:00 0°C° 0 mm 3 mps 746 mmHg 96%
    19:00 0°C° 0 mm 3 mps 746 mmHg 96%
    20:00 0°C° 0 mm 3 mps 747 mmHg 96%
    21:00 +1°C° 0 mm 2 mps 747 mmHg 96%
    22:00 +1°C° 0 mm 2 mps 747 mmHg 96%
    23:00 +1°C° 0 mm 2 mps 747 mmHg 96%

    Tomorrow, 21 February, Friday

    Time Temperature Precipitation Wind Pressure Humidity
    00:00 +1°C° 0 mm 2 mps 747 mmHg 96%
    01:00 +1°C° 0 mm 2 mps 747 mmHg 96%
    02:00 -1°C° 0 mm 2 mps 748 mmHg 95%
    03:00 -1°C° 0 mm 2 mps 748 mmHg 96%
    04:00 -1°C° 0 mm 2 mps 747 mmHg 96%
    05:00 -1°C° 0 mm 3 mps 747 mmHg 96%
    06:00 -1°C° 0 mm 3 mps 747 mmHg 96%
    07:00 -1°C° 0 mm 3 mps 748 mmHg 96%
    08:00 -1°C° 0 mm 3 mps 748 mmHg 96%
    15:00 -1°C° 0 mm 4 mps 747 mmHg 88%
    16:00 -1°C° 0 mm 4 mps 747 mmHg 89%
    17:00 -1°C° 0 mm 4 mps 747 mmHg 90%
    18:00 -1°C° 0 mm 4 mps 747 mmHg 90%
    19:00 -1°C° 0 mm 4 mps 747 mmHg 89%
    20:00 -1°C° 0 mm 4 mps 748 mmHg 89%
    21:00 -2°C° 0 mm 4 mps 748 mmHg 89%
    22:00 -2°C° 0 mm 4 mps 748 mmHg 88%
    23:00 -2°C° 0 mm 4 mps 748 mmHg 88%

    Day after tomorrow, 22 February, Saturday

    Time Temperature Precipitation Wind Pressure Humidity
    00:00 -2°C° 0 mm 4 mps 748 mmHg 88%
    01:00 -2°C° 0 mm 4 mps 748 mmHg 89%
    02:00 -2°C° 0 mm 4 mps 748 mmHg 89%
    03:00 -2°C° 0 mm 5 mps 748 mmHg 89%
    04:00 -2°C° 0 mm 5 mps 747 mmHg 90%
    05:00 -4°C° 0 mm 5 mps 747 mmHg 90%
    06:00 -2°C° 0 mm 5 mps 747 mmHg 90%
    07:00 -3°C° 0 mm 6 mps 747 mmHg 89%
    08:00 -3°C° 0 mm 6 mps 747 mmHg 89%
    09:00 -3°C° 0 mm 6 mps 747 mmHg 88%
    10:00 -2°C° 0 mm 6 mps 747 mmHg 87%
    11:00 -2°C° 0 mm 6 mps 746 mmHg 86%
    12:00 -2°C° 0 mm 6 mps 746 mmHg 85%
    13:00 -2°C° 0 mm 6 mps 746 mmHg 84%
    14:00 -2°C° 0 mm 6 mps 745 mmHg 83%
    15:00 -2°C° 0 mm 7 mps 745 mmHg 84%
    16:00 -2°C° 0 mm 7 mps 744 mmHg 86%
    17:00 -2°C° 0 mm 7 mps 743 mmHg 88%
    18:00 -2°C° 0 mm 7 mps 742 mmHg 88%
    19:00 -2°C° 0 mm 8 mps 741 mmHg 88%
    20:00 -2°C° 0 mm 8 mps 740 mmHg 88%
    21:00 -2°C° 0 mm 8 mps 739 mmHg 88%
    22:00 -3°C° 0 mm 9 mps 737 mmHg 88%
    23:00 -3°C° 0 mm 9 mps 736 mmHg 89%

    23 February, Sunday

    Time Temperature Precipitation Wind Pressure Humidity
    00:00 -4°C° 0.5 mm 9 mps 735 mmHg 91%
    01:00 -4°C° 0.5 mm 10 mps 733 mmHg 93%
    02:00 -4°C° 0.5 mm 10 mps 732 mmHg 95%
    03:00 -4°C° 1 mm 10 mps 731 mmHg 95%
    04:00 -4°C° 1 mm 10 mps 729 mmHg 95%
    05:00 -4°C° 1 mm 9 mps 728 mmHg 95%
    06:00 -4°C° 0.7 mm 9 mps 727 mmHg 95%
    07:00 -4°C° 0.7 mm 9 mps 726 mmHg 95%
    08:00 -4°C° 0.7 mm 8 mps 726 mmHg 96%
    09:00 -3°C° 0.9 mm 7 mps 725 mmHg 96%
    10:00 -3°C° 0.9 mm 6 mps 725 mmHg 97%
    11:00 -2°C° 0.9 mm 5 mps 724 mmHg 98%
    12:00 -1°C° 0.2 mm 5 mps 724 mmHg 94%
    13:00 -1°C° 0.2 mm 5 mps 725 mmHg 90%
    14:00 -1°C° 0.2 mm 5 mps 725 mmHg 86%
    15:00 -1°C° 0.4 mm 5 mps 725 mmHg 88%
    16:00 -1°C° 0.4 mm 5 mps 726 mmHg 90%
    17:00 -2°C° 0.4 mm 5 mps 726 mmHg 93%
    18:00 -2°C° 0 mm 4 mps 726 mmHg 91%
    19:00 -2°C° 0 mm 4 mps 727 mmHg 89%
    20:00 -2°C° 0 mm 4 mps 727 mmHg 87%
    21:00 -3°C° 0 mm 4 mps 727 mmHg 88%
    22:00 -2°C° 0 mm 3 mps 727 mmHg 89%
    23:00 -2°C° 0 mm 3 mps 728 mmHg 90%

    24 February, Monday

    Time Temperature Precipitation Wind Pressure Humidity
    00:00 -4°C° 0 mm 3 mps 728 mmHg 91%
    01:00 -4°C° 0 mm 3 mps 728 mmHg 93%
    02:00 -4°C° 0 mm 3 mps 728 mmHg 94%
    03:00 -4°C° 0 mm 3 mps 728 mmHg 93%
    04:00 -2°C° 0 mm 3 mps 728 mmHg 92%
    05:00 -2°C° 0 mm 3 mps 728 mmHg 91%
    06:00 -2°C° 0 mm 3 mps 728 mmHg 92%
    07:00 -2°C° 0 mm 3 mps 728 mmHg 93%
    08:00 -2°C° 0 mm 3 mps 729 mmHg 93%
    09:00 -2°C° 0 mm 3 mps 729 mmHg 93%
    10:00 -1°C° 0 mm 3 mps 729 mmHg 93%
    11:00 -1°C° 0 mm 3 mps 729 mmHg 92%
    12:00 -1°C° 0 mm 3 mps 729 mmHg 94%
    13:00 -1°C° 0 mm 3 mps 729 mmHg 95%
    14:00 +1°C° 0 mm 2 mps 730 mmHg 96%
    15:00 -1°C° 0.1 mm 3 mps 730 mmHg 97%
    16:00 -1°C° 0.1 mm 3 mps 730 mmHg 97%
    17:00 -1°C° 0.1 mm 3 mps 730 mmHg 98%
    18:00 -1°C° 0.2 mm 3 mps 731 mmHg 97%
    19:00 -1°C° 0.2 mm 3 mps 731 mmHg 96%
    20:00 -2°C° 0.2 mm 3 mps 732 mmHg 95%
    21:00 -2°C° 0 mm 3 mps 732 mmHg 94%
    22:00 -4°C° 0 mm 3 mps 732 mmHg 94%
    23:00 -5°C° 0 mm 3 mps 733 mmHg 94%

    25 February, Tuesday

    Time Temperature Precipitation Wind Pressure Humidity
    00:00 -5°C° 0 mm 3 mps 733 mmHg 94%
    01:00 -5°C° 0 mm 3 mps 733 mmHg 95%
    02:00 -4°C° 0 mm 2 mps 734 mmHg 96%
    03:00 -5°C° 0.1 mm 3 mps 734 mmHg 96%
    04:00 -5°C° 0.1 mm 3 mps 735 mmHg 95%
    05:00 -5°C° 0.1 mm 3 mps 735 mmHg 95%
    06:00 -5°C° 0.1 mm 3 mps 736 mmHg 94%
    07:00 -5°C° 0.1 mm 3 mps 737 mmHg 94%
    08:00 -5°C° 0.1 mm 3 mps 737 mmHg 93%
    09:00 -4°C° 0 mm 3 mps 737 mmHg 90%
    10:00 -4°C° 0 mm 3 mps 738 mmHg 88%
    11:00 -4°C° 0 mm 3 mps 738 mmHg 85%
    12:00 -4°C° 0 mm 3 mps 738 mmHg 84%
    13:00 -3°C° 0 mm 2 mps 738 mmHg 83%
    14:00 -3°C° 0 mm 2 mps 738 mmHg 83%
    15:00 -3°C° 0 mm 2 mps 738 mmHg 85%
    16:00 -1°C° 0 mm 1 mps 738 mmHg 88%
    17:00 -2°C° 0 mm 1 mps 738 mmHg 90%
    18:00 -2°C° 0 mm 1 mps 738 mmHg 91%
    19:00 -2°C° 0 mm 1 mps 738 mmHg 91%
    20:00 -4°C° 0 mm 2 mps 738 mmHg 92%
    21:00 -4°C° 0 mm 2 mps 738 mmHg 90%
    22:00 -5°C° 0 mm 3 mps 738 mmHg 89%
    23:00 -4°C° 0 mm 3 mps 737 mmHg 88%
    Show more